STARLINK-35111, 65463

Orbit data source: Space-Track

STARLINK-35111, 65463 is a payload satellite owned by SpaceX/Seattle (US) in LEO that was launched on Wed, 03 Sep 2025 UTC via an FALCON 9 launch vehicle from the Air Force Eastern Test Range (AFETR). Payload-class satellites include a variety of spacecraft equipped with specific instruments for various scientific and technological missions. These include communications satellites like Starlink; space stations such as the ISS; scientific satellites like the Hubble; Earth observation satellites from companies like Planet Labs, Umbra, and HawkEye 360; GPS; miniature CubeSats for education and research; and military/defense satellites.

Loading next visibility...
Identifier
65463, 2025-195F
Orbit
LEO
Country
Flag of USUS
Related business
Manufacturer
SpaceX/Seattle
Mission
Operational Commercial Communications
Bus & Motor
STARLINK V2MO, Unknown motor
Mass
575 kg wet, ~530 kg dry
Launch date (UTC)
2025-09-03 (10 months ago)
Launch vehicle
FALCON 9
Launch site
Air Force Eastern Test Range (AFETR)
Object type
Payload
Rocket body
Debris
Shape & HBR
Box + 2 Pan, 17.7 m
Radar Cross Section
36.964 m², Large (>1 m²)

Expand to show TLE details & history
Last TLE update: 16 hours ago

TLE from 16 hours ago
0 STARLINK-35111
1 65463U 25195F   26171.18634097  .00032677  00000-0  10592-2 0  9995
2 65463  53.1598 141.5798 0001270  95.6680 264.4467 15.31729631 45691
Epoch: 2026-06-20T04:28Z
TLE epoch observation values (Epoch: 2026-06-20T04:28:19.859Z)
Latitude
0.00002°
Longitude
166.09249°
Altitude
471.636 km
Speed
7.631 km/s
True Right ascension
09h 26m 19s
True Declination
0° 00' 00"
Sunlit
Object was in daylight at epoch
Visualization orbit readout
Latitude
Unknown
Longitude
Unknown
Altitude
Unknown
Speed
Unknown
Apparent Right ascension
Unknown
Apparent Declination
Unknown
Sunlit
N/A
Visualization observer readout
Local Sidereal Time
07:19:12
Azimuth
Unknown
Elevation
Unknown
Doppler factor
Unknown
Orbital elements
Apogee altitude
471.778 km
Perigee altitude
470.038 km
Semi-major axis
6,849.045 km
Eccentricity
0.00013
Inclination
53.1598°
RAAN
141.5798°
Arg. of periapsis
95.668°
True anomaly
264.43222°
Mean anomaly
264.4467°
Eccentric anomaly
264.43946°
Mean motion
3.82911 °/min
Orbital period
94.02 mins
BSTAR
0.0010592
Loading maneuver chart data...
Computing Atmospheric mass density...
Loading historical data...
Loading historical data...
Loading historical data...
Loading historical data...
Loading historical data...
Loading historical data...
Loading historical data...

Documentation

Showing up to 5 results
|